Regional Weather Roundup
Issued by NWS

Home | Current Version | Previous Version | Text Only | Print | Product List | Glossary Off
Versions: 1 2 3 4 5 6 7 8 9 10 11 12 13 14 15 16 17 18 19 20 21 22 23 24 25 26 27 28 29 30 31 32 33 34 35 36 37 38 39 40 41 42 43 44 45 46 47 48 49 50

000
ASUS43 KBIS 152120
RWRND

NORTH DAKOTA REGIONAL WEATHER ROUNDUP
NATIONAL WEATHER SERVICE BISMARCK ND
400 PM CDT TUE APR 15 2014

NOTE: "FAIR" INDICATES FEW OR NO CLOUDS BELOW 12,000 FEET WITH NO
SIGNIFICANT WEATHER AND/OR OBSTRUCTIONS TO VISIBILITY.


NDZ001>003-009>011-017-152200-
NORTHWEST NORTH DAKOTA

CITY           SKY/WX    TMP DP  RH WIND       PRES   REMARKS
WILLISTON      CLOUDY    49  28  44 SW18      29.62F
MINOT          CLOUDY    36  15  42 E23G29    29.78R
MINOT AFB      CLOUDY    36  17  46 SE22G32   29.78S
$$

NDZ018>021-031>035-040>046-152200-
SOUTHWEST NORTH DAKOTA

CITY           SKY/WX    TMP DP  RH WIND       PRES   REMARKS
BISMARCK       CLOUDY    43  19  38 SE24      29.76F
DICKINSON      PTSUNNY   52  21  29 SE15      29.57F
GARRISON         N/A     41  18  39 SE21      29.72F
HETTINGER ARPT MOSUNNY   56  21  25 SE13      29.58F
$$

NDZ004>008-012>016-024-026-027-054-152200-
NORTHEAST NORTH DAKOTA

CITY           SKY/WX    TMP DP  RH WIND       PRES   REMARKS
GRAND FORKS    PTSUNNY   29  12  49 S10       29.98F WCI  20
GRND FRKS AFB  MOSUNNY   31   8  38 SE8       30.02F
DEVILS LAKE    CLOUDY    32  10  40 SE17      29.91F
$$

NDZ022-023-025-028>030-036>039-047>053-152200-
SOUTHEAST NORTH DAKOTA

CITY           SKY/WX    TMP DP  RH WIND       PRES   REMARKS
FARGO          PTSUNNY   32   9  38 SE10      30.01F
JAMESTOWN      CLOUDY    34  16  47 SE17G26   29.88F
$$




USA.gov is the U.S. government's official web portal to all federal, state and local government web resources and services.